Weather History for Grand Forks, ND

Change the Weather History Date:

Saturday, August 31, 2013

  Actual Average Record
Temperature  
Mean Temperature 73 °F 64 °F  
Max Temperature 85 °F 77 °F 97 °F (1953)
Min Temperature 60 °F 50 °F 35 °F (1987)
Degree Days  
Heating Degree Days 0 4  
Month to date heating degree days 53 55  
Since 1 June heating degree days 159 185  
Since 1 July heating degree days 82 82  
Cooling Degree Days 8 2  
Month to date cooling degree days 160 119  
Year to date cooling degree days 448 352  
Since 1 June cooling degree days 439 335  
Growing Degree Days 22 (Base 50)    
Moisture  
Dew Point 62 °F    
Average Humidity 69    
Maximum Humidity 97    
Minimum Humidity 40    
Precipitation  
Precipitation 0.02 in 0.09 in 1.57 in (1957)
Month to date precipitation 0.88 2.88  
Year to date precipitation 14.23 15.23  
Snow  
Snow 0.00 in 0.00 in - ()
Month to date snowfall 0.0 0.0  
Since 1 June snowfall 0.0 0.0  
Since 1 July snowfall 0.0 0.0  
Snow Depth 0.00 in    
Sea Level Pressure  
Sea Level Pressure 29.71 in    
Wind  
Wind Speed 10 mph (SW)    
Max Wind Speed 36 mph    
Max Gust Speed 46 mph    
Visibility 10 miles    
Events Rain    
T = Trace of Precipitation, MM = Missing Value Source: NWS Daily Summary

Daily Weather History Graph

Daily Weather History Graph

Search for Another Location

Airport:

Trip Planner

Search our weather history database for the weather conditions in past years. The results will help you decide how hot, cold, wet, or windy it might be!

Date:

Astronomy

Aug. 31, 2013 Rise Set
Actual Time 6:45 AM CDT 8:11 PM CDT
Civil Twilight 6:13 AM CDT 8:43 PM CDT
Nautical Twilight 5:34 AM CDT 9:22 PM CDT
Astronomical Twilight 4:52 AM CDT 10:04 PM CDT
Moon 2:02 AM CDT (8/31) 5:21 PM CDT (8/31)
Length of Visible Light 14h 29m
Length of Day
13h 25m
Waning Crescent, 21% of the Moon is Illuminated
Aug 31
Waning Crescent
Sep 5
New
Sep 12
First Quarter
Sep 19
Full
Sep 26
Last Quarter

Hourly Weather History & Observations

Time (CDT) Temp. Heat Index Dew Point Humidity Pressure Visibility Wind Dir Wind Speed Gust Speed Precip Events Conditions
12:53 AM 73.0 °F - 64.0 °F 73% 29.72 in 10.0 mi SSW 15.0 mph - 0.00 in   Partly Cloudy
1:53 AM 73.9 °F - 63.0 °F 68% 29.73 in 10.0 mi SSW 11.5 mph - N/A   Clear
2:53 AM 71.1 °F - 64.0 °F 78% 29.71 in 10.0 mi South 10.4 mph - N/A   Clear
3:53 AM 69.1 °F - 64.0 °F 84% 29.71 in 10.0 mi South 8.1 mph - N/A   Clear
4:53 AM 68.0 °F - 64.0 °F 87% 29.74 in 10.0 mi ENE 3.5 mph - N/A   Clear
5:53 AM 64.9 °F - 62.1 °F 90% 29.72 in 10.0 mi South 3.5 mph - N/A   Scattered Clouds
6:53 AM 64.0 °F - 62.1 °F 93% 29.74 in 10.0 mi East 5.8 mph - N/A   Scattered Clouds
7:53 AM 66.0 °F - 64.0 °F 93% 29.73 in 10.0 mi SSE 3.5 mph - N/A   Scattered Clouds
8:53 AM 71.1 °F - 66.0 °F 84% 29.72 in 10.0 mi South 10.4 mph - N/A   Scattered Clouds
9:53 AM 77.0 °F - 66.0 °F 69% 29.71 in 10.0 mi South 9.2 mph - N/A   Scattered Clouds
10:53 AM 81.0 °F 81.7 °F 61.0 °F 50% 29.69 in 10.0 mi South 16.1 mph 20.7 mph N/A   Scattered Clouds
11:53 AM 82.9 °F 84.0 °F 63.0 °F 51% 29.68 in 10.0 mi SSW 11.5 mph - N/A   Mostly Cloudy
12:53 PM 78.1 °F - 64.9 °F 64% 29.68 in 10.0 mi SSW 9.2 mph - 0.00 in   Overcast
1:53 PM 75.9 °F - 64.9 °F 69% 29.71 in 10.0 mi SW 3.5 mph - 0.00 in Rain Light Rain
2:53 PM 77.0 °F - 66.9 °F 71% 29.65 in 10.0 mi SSE 11.5 mph - 0.00 in   Overcast
3:53 PM 82.9 °F 84.0 °F 63.0 °F 51% 29.64 in 10.0 mi West 12.7 mph - N/A   Scattered Clouds
4:53 PM 84.0 °F 84.9 °F 63.0 °F 49% 29.62 in 10.0 mi West 13.8 mph 24.2 mph N/A   Partly Cloudy
5:53 PM 84.0 °F 83.5 °F 57.9 °F 41% 29.61 in 10.0 mi West 18.4 mph 27.6 mph N/A   Partly Cloudy
6:53 PM 73.9 °F - 57.0 °F 55% 29.69 in 10.0 mi NNW 32.2 mph 46.0 mph N/A   Scattered Clouds
7:01 PM 71.6 °F - 57.2 °F 60% 29.70 in 10.0 mi NW 26.5 mph 41.4 mph N/A   Scattered Clouds
7:53 PM 68.0 °F - 57.0 °F 68% 29.72 in 10.0 mi NW 16.1 mph - 0.02 in   Scattered Clouds
8:53 PM 64.0 °F - 57.9 °F 80% 29.76 in 10.0 mi NNW 6.9 mph - N/A   Partly Cloudy
9:53 PM 61.0 °F - 57.9 °F 90% 29.79 in 10.0 mi NNW 5.8 mph - N/A   Partly Cloudy
10:53 PM 62.1 °F - 59.0 °F 90% 29.79 in 10.0 mi NW 5.8 mph - N/A   Clear
11:53 PM 61.0 °F - 59.0 °F 93% 29.79 in 10.0 mi West 5.8 mph - N/A   Mostly Cloudy